When you browse on this site, cookies collect data to enhance your experience and personalize the content and advertising you see.
Visit our Privacy Policy to learn more. By continuing to use the site, you agree to this use of cookies and data.
  • Em Portugal
  • Lista de países
  • Para 7 dias
  • Temperatura da água
  • Mapa do tempo
  • Widgets de tempo
  • user-avatar
    Iniciar Sessão

    Previsão horária em Victória

    Hoje, 28 Fevereiro, Sexta-feira

    Tempo Temperatura Precipitação Vento Pressão Humidade
    00:00 +15°C° 0 mm 2 m/s 747 mmHg 66%
    01:00 +14°C° 0 mm 2 m/s 747 mmHg 70%
    02:00 +14°C° 0 mm 2 m/s 747 mmHg 71%
    03:00 +14°C° 0 mm 2 m/s 747 mmHg 73%
    04:00 +13°C° 0 mm 3 m/s 747 mmHg 73%
    05:00 +13°C° 0 mm 3 m/s 748 mmHg 73%
    06:00 +13°C° 0 mm 3 m/s 748 mmHg 74%
    07:00 +14°C° 0 mm 3 m/s 749 mmHg 74%
    08:00 +17°C° 0 mm 4 m/s 749 mmHg 66%
    09:00 +19°C° 0 mm 4 m/s 749 mmHg 58%
    10:00 +20°C° 0 mm 4 m/s 749 mmHg 49%
    11:00 +22°C° 0 mm 4 m/s 749 mmHg 44%
    12:00 +23°C° 0 mm 4 m/s 749 mmHg 40%
    13:00 +26°C° 0 mm 5 m/s 748 mmHg 35%
    14:00 +26°C° 0 mm 5 m/s 748 mmHg 34%
    15:00 +27°C° 0 mm 5 m/s 747 mmHg 33%
    16:00 +27°C° 0 mm 5 m/s 747 mmHg 33%
    17:00 +25°C° 0 mm 5 m/s 747 mmHg 37%
    18:00 +23°C° 0 mm 5 m/s 748 mmHg 42%
    19:00 +21°C° 0 mm 4 m/s 748 mmHg 47%
    20:00 +20°C° 0 mm 4 m/s 748 mmHg 52%
    21:00 +18°C° 0 mm 4 m/s 749 mmHg 57%
    22:00 +17°C° 0 mm 4 m/s 749 mmHg 61%
    23:00 +15°C° 0 mm 4 m/s 749 mmHg 66%

    Amanhã, 29 Fevereiro, Sábado

    Tempo Temperatura Precipitação Vento Pressão Humidade
    00:00 +14°C° 0 mm 4 m/s 749 mmHg 70%
    01:00 +14°C° 0 mm 3 m/s 749 mmHg 75%
    02:00 +13°C° 0 mm 3 m/s 749 mmHg 77%
    03:00 +14°C° 0 mm 2 m/s 749 mmHg 79%
    04:00 +13°C° 0 mm 1 m/s 749 mmHg 82%
    05:00 +14°C° 0 mm 1 m/s 750 mmHg 80%
    06:00 +14°C° 0 mm 1 m/s 750 mmHg 78%
    07:00 +14°C° 0 mm 1 m/s 750 mmHg 77%
    08:00 +18°C° 0 mm 1 m/s 750 mmHg 68%
    09:00 +19°C° 0 mm 2 m/s 750 mmHg 59%
    10:00 +21°C° 0 mm 2 m/s 750 mmHg 50%
    11:00 +24°C° 0 mm 2 m/s 750 mmHg 45%
    12:00 +25°C° 0 mm 2 m/s 749 mmHg 40%
    13:00 +27°C° 0 mm 3 m/s 748 mmHg 35%
    14:00 +27°C° 0 mm 2 m/s 748 mmHg 34%
    15:00 +28°C° 0 mm 2 m/s 747 mmHg 32%
    16:00 +29°C° 0 mm 2 m/s 746 mmHg 30%
    17:00 +27°C° 0 mm 2 m/s 747 mmHg 33%
    18:00 +26°C° 0 mm 1 m/s 747 mmHg 36%
    19:00 +24°C° 0 mm 1 m/s 747 mmHg 39%
    20:00 +23°C° 0 mm 1 m/s 747 mmHg 42%
    21:00 +22°C° 0 mm 1 m/s 748 mmHg 44%
    22:00 +21°C° 0 mm 1 m/s 748 mmHg 47%
    23:00 +21°C° 0 mm 1 m/s 747 mmHg 50%

    Depois de amanhã, 1 Março, Domingo

    Tempo Temperatura Precipitação Vento Pressão Humidade
    00:00 +20°C° 0 mm 1 m/s 747 mmHg 54%
    01:00 +19°C° 0 mm 1 m/s 747 mmHg 58%
    02:00 +19°C° 0 mm 1 m/s 746 mmHg 59%
    03:00 +18°C° 0 mm 1 m/s 746 mmHg 59%
    04:00 +18°C° 0 mm 1 m/s 746 mmHg 60%
    05:00 +18°C° 0 mm 1 m/s 746 mmHg 59%
    06:00 +19°C° 0 mm 1 m/s 746 mmHg 58%
    07:00 +18°C° 0 mm 2 m/s 746 mmHg 57%
    08:00 +21°C° 0 mm 2 m/s 746 mmHg 49%
    09:00 +25°C° 0 mm 3 m/s 746 mmHg 41%
    10:00 +28°C° 0 mm 3 m/s 746 mmHg 33%
    11:00 +30°C° 0 mm 4 m/s 745 mmHg 29%
    12:00 +32°C° 0 mm 4 m/s 745 mmHg 26%
    13:00 +34°C° 0 mm 5 m/s 744 mmHg 22%
    14:00 +34°C° 0 mm 5 m/s 743 mmHg 21%
    15:00 +35°C° 0 mm 5 m/s 743 mmHg 20%
    16:00 +35°C° 0 mm 5 m/s 742 mmHg 19%
    17:00 +34°C° 0 mm 4 m/s 742 mmHg 21%
    18:00 +31°C° 0 mm 3 m/s 742 mmHg 23%
    19:00 +30°C° 0 mm 3 m/s 743 mmHg 24%
    20:00 +28°C° 0 mm 4 m/s 743 mmHg 34%
    21:00 +26°C° 0 mm 5 m/s 744 mmHg 43%
    22:00 +22°C° 0 mm 6 m/s 744 mmHg 52%
    23:00 +21°C° 0 mm 6 m/s 744 mmHg 58%

    2 Março, Segunda-feira

    Tempo Temperatura Precipitação Vento Pressão Humidade
    00:00 +20°C° 0 mm 5 m/s 745 mmHg 64%
    01:00 +19°C° 0 mm 5 m/s 745 mmHg 70%
    02:00 +19°C° 0 mm 5 m/s 745 mmHg 70%
    03:00 +19°C° 0 mm 5 m/s 745 mmHg 69%
    04:00 +17°C° 0 mm 5 m/s 746 mmHg 68%
    05:00 +17°C° 0 mm 5 m/s 746 mmHg 69%
    06:00 +17°C° 0 mm 5 m/s 747 mmHg 69%
    07:00 +17°C° 0 mm 5 m/s 747 mmHg 69%
    08:00 +19°C° 0 mm 6 m/s 748 mmHg 62%
    09:00 +21°C° 0 mm 6 m/s 748 mmHg 54%
    10:00 +22°C° 0 mm 6 m/s 749 mmHg 46%
    11:00 +23°C° 0 mm 7 m/s 749 mmHg 43%
    12:00 +23°C° 0 mm 7 m/s 749 mmHg 41%
    13:00 +23°C° 0 mm 7 m/s 749 mmHg 38%
    14:00 +23°C° 0 mm 8 m/s 748 mmHg 36%
    15:00 +23°C° 0 mm 8 m/s 748 mmHg 34%
    16:00 +23°C° 0 mm 8 m/s 748 mmHg 32%
    17:00 +21°C° 0 mm 8 m/s 748 mmHg 36%
    18:00 +17°C° 0 mm 8 m/s 749 mmHg 40%
    19:00 +15°C° 0 mm 8 m/s 750 mmHg 44%
    20:00 +14°C° 0 mm 7 m/s 750 mmHg 49%
    21:00 +12°C° 0 mm 7 m/s 751 mmHg 54%
    22:00 +10°C° 0 mm 7 m/s 752 mmHg 59%
    23:00 +10°C° 0 mm 6 m/s 752 mmHg 60%

    3 Março, Terça-feira

    Tempo Temperatura Precipitação Vento Pressão Humidade
    00:00 +10°C° 0 mm 6 m/s 752 mmHg 62%
    01:00 +9°C° 0 mm 6 m/s 752 mmHg 63%
    02:00 +9°C° 0 mm 6 m/s 752 mmHg 64%
    03:00 +9°C° 0 mm 5 m/s 752 mmHg 64%
    04:00 +8°C° 0 mm 5 m/s 752 mmHg 65%
    05:00 +8°C° 0 mm 5 m/s 752 mmHg 65%
    06:00 +9°C° 0 mm 5 m/s 752 mmHg 64%
    07:00 +10°C° 0 mm 4 m/s 752 mmHg 63%
    08:00 +13°C° 0 mm 4 m/s 752 mmHg 54%
    09:00 +17°C° 0 mm 4 m/s 752 mmHg 44%
    10:00 +21°C° 0 mm 3 m/s 752 mmHg 34%
    11:00 +24°C° 0 mm 3 m/s 752 mmHg 33%
    12:00 +26°C° 0 mm 2 m/s 751 mmHg 31%
    13:00 +28°C° 0 mm 1 m/s 751 mmHg 30%
    14:00 +29°C° 0 mm 2 m/s 750 mmHg 28%
    15:00 +29°C° 0 mm 2 m/s 750 mmHg 26%
    16:00 +30°C° 0 mm 3 m/s 749 mmHg 24%
    17:00 +27°C° 0 mm 4 m/s 749 mmHg 31%
    18:00 +25°C° 0 mm 5 m/s 750 mmHg 37%
    19:00 +22°C° 0 mm 6 m/s 750 mmHg 44%
    20:00 +20°C° 0 mm 6 m/s 751 mmHg 50%
    21:00 +19°C° 0 mm 5 m/s 751 mmHg 56%
    22:00 +16°C° 0 mm 5 m/s 751 mmHg 62%
    23:00 +17°C° 0 mm 4 m/s 751 mmHg 63%

    4 Março, Quarta-feira

    Tempo Temperatura Precipitação Vento Pressão Humidade
    00:00 +15°C° 0 mm 4 m/s 751 mmHg 64%
    01:00 +16°C° 0 mm 3 m/s 751 mmHg 65%
    02:00 +16°C° 0 mm 3 m/s 751 mmHg 66%
    03:00 +17°C° 0 mm 3 m/s 751 mmHg 67%
    04:00 +17°C° 0 mm 3 m/s 751 mmHg 68%
    05:00 +17°C° 0 mm 3 m/s 751 mmHg 66%
    06:00 +17°C° 0 mm 3 m/s 751 mmHg 64%
    07:00 +18°C° 0 mm 3 m/s 751 mmHg 61%
    08:00 +20°C° 0 mm 3 m/s 751 mmHg 56%
    09:00 +23°C° 0 mm 4 m/s 751 mmHg 51%
    10:00 +26°C° 0 mm 5 m/s 751 mmHg 45%
    11:00 +27°C° 0 mm 5 m/s 751 mmHg 44%
    12:00 +28°C° 0 mm 5 m/s 750 mmHg 42%
    13:00 +29°C° 0 mm 5 m/s 749 mmHg 40%
    14:00 +30°C° 0 mm 5 m/s 749 mmHg 40%
    15:00 +30°C° 0 mm 4 m/s 748 mmHg 39%
    16:00 +30°C° 0 mm 3 m/s 748 mmHg 39%
    17:00 +29°C° 0.3 mm 3 m/s 748 mmHg 44%
    18:00 +27°C° 0.3 mm 3 m/s 748 mmHg 49%
    19:00 +26°C° 0.3 mm 3 m/s 749 mmHg 53%
    20:00 +25°C° 0.9 mm 4 m/s 749 mmHg 59%
    21:00 +22°C° 0.9 mm 4 m/s 750 mmHg 65%
    22:00 +21°C° 0.9 mm 5 m/s 750 mmHg 70%
    23:00 +20°C° 0 mm 5 m/s 750 mmHg 71%
    Mostrar mais